When you browse on this site, cookies collect data to enhance your experience and personalize the content and advertising you see.
Visit our Privacy Policy to learn more. By continuing to use the site, you agree to this use of cookies and data.
  • In Czech Republic
  • List of Countries
  • For 7 days
  • Water Temperature
  • Weather Map
  • Weather Widgets
  • user-avatar
    Login

    Hourly Weather Eskilstuna

    Today, 3 April, Friday

    Time Temperature Precipitation Wind Pressure Humidity
    00:00 -2°C° 0.2 mm 6 mps 731 mmHg 76%
    01:00 -2°C° 0.2 mm 7 mps 731 mmHg 68%
    02:00 -2°C° 0 mm 7 mps 731 mmHg 65%
    03:00 -2°C° 0 mm 7 mps 731 mmHg 62%
    04:00 -2°C° 0 mm 7 mps 732 mmHg 59%
    05:00 -2°C° 0 mm 7 mps 733 mmHg 55%
    06:00 -2°C° 0 mm 7 mps 734 mmHg 51%
    07:00 -1°C° 0 mm 8 mps 736 mmHg 47%
    08:00 -1°C° 0 mm 7 mps 737 mmHg 45%
    09:00 0°C° 0 mm 7 mps 738 mmHg 43%
    10:00 +2°C° 0 mm 7 mps 739 mmHg 40%
    11:00 +3°C° 0 mm 7 mps 740 mmHg 39%
    12:00 +3°C° 0 mm 7 mps 742 mmHg 37%
    13:00 +3°C° 0 mm 7 mps 743 mmHg 36%
    14:00 +3°C° 0.1 mm 6 mps 744 mmHg 36%
    15:00 +3°C° 0.1 mm 6 mps 744 mmHg 36%
    16:00 +3°C° 0.1 mm 5 mps 745 mmHg 36%
    17:00 +2°C° 0 mm 5 mps 746 mmHg 39%
    18:00 +1°C° 0 mm 4 mps 747 mmHg 43%
    19:00 +1°C° 0 mm 3 mps 748 mmHg 46%
    20:00 0°C° 0 mm 3 mps 749 mmHg 50%
    21:00 -1°C° 0 mm 3 mps 749 mmHg 53%
    22:00 -1°C° 0 mm 2 mps 750 mmHg 56%
    23:00 -1°C° 0 mm 2 mps 751 mmHg 58%

    Tomorrow, 4 April, Saturday

    Time Temperature Precipitation Wind Pressure Humidity
    00:00 -1°C° 0 mm 2 mps 752 mmHg 59%
    01:00 +1°C° 0 mm 1 mps 752 mmHg 61%
    02:00 -2°C° 0 mm 2 mps 753 mmHg 62%
    03:00 -2°C° 0 mm 2 mps 754 mmHg 62%
    04:00 -2°C° 0 mm 2 mps 754 mmHg 63%
    05:00 -1°C° 0 mm 3 mps 755 mmHg 58%
    06:00 -1°C° 0 mm 3 mps 756 mmHg 53%
    07:00 -1°C° 0 mm 4 mps 756 mmHg 48%
    08:00 0°C° 0 mm 4 mps 757 mmHg 41%
    09:00 +1°C° 0 mm 5 mps 758 mmHg 35%
    10:00 +2°C° 0 mm 5 mps 759 mmHg 28%
    11:00 +2°C° 0 mm 5 mps 760 mmHg 27%
    12:00 +3°C° 0 mm 5 mps 761 mmHg 25%
    13:00 +5°C° 0 mm 4 mps 761 mmHg 23%
    14:00 +5°C° 0 mm 4 mps 762 mmHg 24%
    15:00 +4°C° 0 mm 4 mps 763 mmHg 25%
    16:00 +4°C° 0 mm 4 mps 763 mmHg 26%
    17:00 +3°C° 0 mm 3 mps 764 mmHg 32%
    18:00 +2°C° 0 mm 3 mps 765 mmHg 38%
    19:00 +1°C° 0 mm 2 mps 766 mmHg 44%
    20:00 +1°C° 0 mm 2 mps 766 mmHg 47%
    21:00 -1°C° 0 mm 2 mps 767 mmHg 50%
    22:00 -2°C° 0 mm 2 mps 768 mmHg 53%
    23:00 -2°C° 0 mm 2 mps 768 mmHg 55%

    Day after tomorrow, 5 April, Sunday

    Time Temperature Precipitation Wind Pressure Humidity
    00:00 -1°C° 0 mm 2 mps 769 mmHg 57%
    01:00 -1°C° 0 mm 2 mps 769 mmHg 59%
    02:00 -1°C° 0 mm 2 mps 769 mmHg 63%
    03:00 -1°C° 0 mm 2 mps 769 mmHg 68%
    04:00 -1°C° 0 mm 3 mps 770 mmHg 72%
    05:00 0°C° 0 mm 3 mps 770 mmHg 71%
    06:00 +1°C° 0 mm 3 mps 770 mmHg 69%
    07:00 +1°C° 0 mm 3 mps 770 mmHg 67%
    08:00 +3°C° 0 mm 4 mps 770 mmHg 64%
    09:00 +4°C° 0 mm 4 mps 770 mmHg 61%
    10:00 +5°C° 0 mm 4 mps 770 mmHg 58%
    11:00 +6°C° 0 mm 4 mps 770 mmHg 56%
    12:00 +7°C° 0 mm 4 mps 769 mmHg 53%
    13:00 +8°C° 0 mm 4 mps 769 mmHg 51%
    14:00 +10°C° 0 mm 4 mps 769 mmHg 50%
    15:00 +10°C° 0 mm 4 mps 769 mmHg 49%
    16:00 +10°C° 0 mm 4 mps 768 mmHg 48%
    17:00 +8°C° 0 mm 4 mps 768 mmHg 52%
    18:00 +8°C° 0 mm 3 mps 768 mmHg 57%
    19:00 +5°C° 0 mm 3 mps 768 mmHg 61%
    20:00 +5°C° 0 mm 3 mps 768 mmHg 62%
    21:00 +5°C° 0 mm 4 mps 768 mmHg 63%
    22:00 +4°C° 0 mm 4 mps 768 mmHg 64%
    23:00 +4°C° 0 mm 4 mps 768 mmHg 62%

    6 April, Monday

    Time Temperature Precipitation Wind Pressure Humidity
    00:00 +3°C° 0 mm 4 mps 767 mmHg 61%
    01:00 +1°C° 0 mm 4 mps 767 mmHg 59%
    02:00 +1°C° 0 mm 4 mps 767 mmHg 62%
    03:00 +1°C° 0 mm 4 mps 767 mmHg 64%
    04:00 0°C° 0 mm 4 mps 766 mmHg 66%
    05:00 +1°C° 0 mm 4 mps 766 mmHg 67%
    06:00 +3°C° 0 mm 4 mps 766 mmHg 68%
    07:00 +3°C° 0 mm 4 mps 766 mmHg 69%
    08:00 +5°C° 0 mm 4 mps 765 mmHg 64%
    09:00 +7°C° 0 mm 5 mps 765 mmHg 59%
    10:00 +8°C° 0 mm 5 mps 764 mmHg 54%
    11:00 +10°C° 0 mm 5 mps 764 mmHg 50%
    12:00 +12°C° 0 mm 5 mps 763 mmHg 46%
    13:00 +14°C° 0 mm 5 mps 763 mmHg 41%
    14:00 +14°C° 0 mm 5 mps 762 mmHg 40%
    15:00 +14°C° 0 mm 5 mps 762 mmHg 40%
    16:00 +15°C° 0 mm 5 mps 761 mmHg 39%
    17:00 +13°C° 0 mm 5 mps 761 mmHg 44%
    18:00 +11°C° 0 mm 4 mps 761 mmHg 49%
    19:00 +8°C° 0 mm 4 mps 761 mmHg 55%
    20:00 +8°C° 0 mm 4 mps 761 mmHg 57%
    21:00 +8°C° 0 mm 4 mps 761 mmHg 59%
    22:00 +7°C° 0 mm 4 mps 760 mmHg 62%
    23:00 +7°C° 0 mm 4 mps 760 mmHg 66%

    7 April, Tuesday

    Time Temperature Precipitation Wind Pressure Humidity
    00:00 +7°C° 0 mm 4 mps 760 mmHg 70%
    01:00 +6°C° 0 mm 4 mps 760 mmHg 75%
    02:00 +7°C° 0 mm 4 mps 759 mmHg 77%
    03:00 +7°C° 0 mm 5 mps 759 mmHg 79%
    04:00 +8°C° 0 mm 5 mps 759 mmHg 81%
    05:00 +8°C° 0 mm 5 mps 759 mmHg 80%
    06:00 +8°C° 0 mm 6 mps 759 mmHg 79%
    07:00 +9°C° 0 mm 6 mps 760 mmHg 77%
    08:00 +9°C° 0 mm 6 mps 760 mmHg 70%
    09:00 +10°C° 0 mm 6 mps 761 mmHg 63%
    10:00 +10°C° 0 mm 7 mps 761 mmHg 56%
    11:00 +11°C° 0 mm 6 mps 762 mmHg 48%
    12:00 +13°C° 0 mm 6 mps 763 mmHg 41%
    13:00 +14°C° 0 mm 6 mps 764 mmHg 33%
    14:00 +14°C° 0 mm 6 mps 764 mmHg 33%
    15:00 +13°C° 0 mm 6 mps 765 mmHg 32%
    16:00 +13°C° 0 mm 6 mps 766 mmHg 32%
    17:00 +12°C° 0 mm 5 mps 766 mmHg 37%
    18:00 +9°C° 0 mm 5 mps 767 mmHg 42%
    19:00 +8°C° 0 mm 5 mps 767 mmHg 47%
    20:00 +7°C° 0 mm 4 mps 768 mmHg 50%
    21:00 +7°C° 0 mm 4 mps 768 mmHg 52%
    22:00 +6°C° 0 mm 4 mps 769 mmHg 55%
    23:00 +6°C° 0 mm 4 mps 769 mmHg 58%

    8 April, Wednesday

    Time Temperature Precipitation Wind Pressure Humidity
    00:00 +5°C° 0 mm 3 mps 770 mmHg 61%
    01:00 +5°C° 0 mm 3 mps 770 mmHg 65%
    02:00 +4°C° 0 mm 3 mps 770 mmHg 69%
    03:00 +5°C° 0 mm 2 mps 770 mmHg 72%
    04:00 +4°C° 0 mm 2 mps 771 mmHg 76%
    05:00 +5°C° 0 mm 2 mps 771 mmHg 74%
    06:00 +5°C° 0 mm 2 mps 771 mmHg 72%
    07:00 +5°C° 0 mm 3 mps 771 mmHg 70%
    08:00 +7°C° 0 mm 3 mps 771 mmHg 63%
    09:00 +8°C° 0 mm 3 mps 771 mmHg 57%
    10:00 +10°C° 0 mm 3 mps 770 mmHg 51%
    11:00 +11°C° 0 mm 4 mps 770 mmHg 48%
    12:00 +12°C° 0 mm 4 mps 770 mmHg 45%
    13:00 +13°C° 0 mm 5 mps 769 mmHg 42%
    14:00 +13°C° 0 mm 5 mps 769 mmHg 41%
    15:00 +13°C° 0 mm 5 mps 768 mmHg 40%
    16:00 +13°C° 0 mm 5 mps 768 mmHg 39%
    17:00 +12°C° 0 mm 4 mps 768 mmHg 43%
    18:00 +11°C° 0 mm 4 mps 767 mmHg 48%
    19:00 +9°C° 0 mm 3 mps 767 mmHg 53%
    20:00 +9°C° 0 mm 3 mps 767 mmHg 54%
    21:00 +8°C° 0 mm 3 mps 767 mmHg 55%
    22:00 +7°C° 0 mm 4 mps 767 mmHg 56%
    23:00 +6°C° 0 mm 4 mps 767 mmHg 60%
    Show more